User: anonymous   Login
Location: Bucharest
(44.4268°N, 26.1025°E)
Time: 03:52:47
(UTC+03:00)
Language:

HuskySat-1 - Orbit

View from above orbital plane
View from above orbital plane
View from above satellite
View from above satellite

Ground track
Ground track

The orbit data is extracted from the following two-line orbital elements,

1 45117U 19071G   22178.78424021  .00024233  00000-0  45182-3 0  9991
2 45117  51.6376   3.3757 0008493 207.8771 152.1763 15.48638737135038
Epoch (UTC): 27 June 2022 18:49:18
Eccentricity: 0.0008493
inclination: 51.6376°
perigee height: 415 km
apogee height: 426 km
right ascension of ascending node: 3.3757°
argument of perigee: 207.8771°
revolutions per day: 15.48638737
mean anomaly at epoch: 152.1763°
orbit number at epoch: 13503

The dashed part of the orbit path shows where the satellite is in the earth's shadow,  

DLR